sat.trackr.live / text

‹ back to catalog

STARLINK-1504

NORAD 45746 · 2020-038S

PAYLOAD ACTIVE UNKNOWN

§ Identity

Operator
Country
US
Launch date
2020-06-13
Launch site
AFETR
Launch vehicle
Mass (kg)
RCS (m²)

Purposes: comms

External: N2YO · Heavens-Above · Gunter

§ Orbital elements

Epoch: 2026-09-11T11:38:41.495136Z

Period
91.95 min
Inclination
53.0175°
Eccentricity
0.0002826
Mean motion
15.66076968 rev/d
Perigee alt
368.2 km
Apogee alt
372.1 km
Semi-major
6,748.3 km
B*
3.5754e-4
RAAN
317.3668°
Arg perigee
47.4059°
Mean anomaly
312.7194°
Rev number
34,650

§ Raw data

STARLINK-15041 45746U 20038S   26254.48520249  .00036960  00000+0  35754-3 0  99922 45746  53.0175 317.3668 0002826  47.4059 312.7194 15.66076968346509

JSON: /api/v1/satellites/45746 · /tle

For live sub-satellite position, see the globe view (requires WebGL).

§ Visibility from observer

Set your observer location to see the next 7 days of passes ≥ 10°. The values pass through the URL so the page stays shareable.

No JS? Fill the form by hand. The geolocation button needs JavaScript.